GEOSCAN 6 (RS92S6)

Last updated on Sun Aug 09 2026 00:03:16 GMT+0000 (Coordinated Universal Time)

1 64879U 25155D 26220.61217550 .00005428 00000+0 18318-3 0 9993 2 64879 97.4595 189.4156 0007531 9.3121 350.8258 15.31098199 88789
UTC large
Height (km)
Speed (km/s)
/
Latitude / Longitude
Inclination (degrees)
Orbital Period (minutes)
Azimuth
Elevation
Range (km)
Doppler Factor

Next 0 passes for location: London (51.5072 / 0.1276)

No passes found over London.
GEOSCAN 6 (RS92S6)